Carbondale, IL

9:59 AM CST on December 06, 2019 (GMT -0600)
Southern Illinois

Weather History for KMDH - October, 2019

Change the Weather History Date:

Thursday, October 3, 2019

  Actual Average Record
Temperature  
Mean Temperature 73 °F -  
Max Temperature 84 °F 75 °F 96 °F (1922)
Min Temperature 59 °F 46 °F 27 °F (1981)
Cooling Degree Days 8    
Growing Degree Days 23 (Base 50)    
Moisture  
Dew Point 61 °F    
Average Humidity 67    
Maximum Humidity 87    
Minimum Humidity 44    
Precipitation  
Precipitation 0.00 in - - ()
Sea Level Pressure  
Sea Level Pressure 30.07 in    
Wind  
Wind Speed 6 mph (NNW)    
Max Wind Speed 15 mph    
Max Gust Speed 23 mph    
Visibility 10 miles    
Events      
Averages and records for this station are not official NWS values.
T = Trace of Precipitation, MM = Missing Value Source: NWS Daily Summary

Daily Weather History Graph

Daily Weather History Graph

Search for Another Location

Airport or City:

Astronomy

Oct. 03, 2019 Rise Set
Actual Time 6:54 AM CDT 6:37 PM CDT
Civil Twilight 6:27 AM CDT 7:03 PM CDT
Nautical Twilight 5:57 AM CDT 7:33 PM CDT
Astronomical Twilight 5:26 AM CDT 8:04 PM CDT
Moon 12:20 PM CDT (10/3) 10:21 PM CDT (10/3)
Length of Visible Light 12h 35m
Length of Day
11h 43m
Waxing Crescent, 30% of the Moon is Illuminated
Oct 3
Waxing Crescent
Oct 5
First Quarter
Oct 13
Full
Oct 21
Last Quarter
Oct 27
New

Hourly Weather History & Observations

Time (CDT) Temp. Heat Index Dew Point Humidity Pressure Visibility Wind Dir Wind Speed Gust Speed Precip Events Conditions
12:52 AM 69.1 °F - 62.1 °F 78% 29.94 in 10.0 mi SSW 3.5 mph - N/A   Clear
1:52 AM 66.0 °F - 62.1 °F 87% 29.95 in 10.0 mi South 3.5 mph - N/A   Clear
2:52 AM 66.9 °F - 62.1 °F 84% 29.96 in 10.0 mi Calm Calm - N/A   Clear
3:52 AM 64.9 °F - 61.0 °F 87% 29.97 in 10.0 mi Calm Calm - N/A   Clear
4:52 AM 66.9 °F - 62.1 °F 84% 29.98 in 10.0 mi SSW 3.5 mph - N/A   Clear
5:52 AM 66.0 °F - 62.1 °F 87% 29.99 in 10.0 mi South 4.6 mph - N/A   Clear
6:52 AM 66.0 °F - 62.1 °F 87% 30.01 in 10.0 mi Calm Calm - N/A   Clear
7:52 AM 69.1 °F - 64.9 °F 87% 30.03 in 9.0 mi Calm Calm - N/A   Clear
8:52 AM 79.0 °F - 66.0 °F 64% 30.05 in 10.0 mi NW 9.2 mph - N/A   Clear
9:52 AM 82.0 °F 84.9 °F 68.0 °F 62% 30.06 in 10.0 mi Variable 5.8 mph - N/A   Clear
10:52 AM 84.9 °F 88.8 °F 69.1 °F 59% 30.06 in 10.0 mi NW 9.2 mph - N/A   Scattered Clouds
11:52 AM 82.9 °F 86.5 °F 69.1 °F 63% 30.08 in 10.0 mi NW 15.0 mph - N/A   Overcast
12:52 PM 82.9 °F 85.8 °F 68.0 °F 60% 30.09 in 10.0 mi North 12.7 mph 23.0 mph N/A   Scattered Clouds
1:27 PM 84.9 °F 87.6 °F 66.9 °F 55% 30.09 in 10.0 mi North 11.5 mph 19.6 mph N/A   Mostly Cloudy
1:52 PM 84.0 °F 86.3 °F 66.0 °F 55% 30.08 in 10.0 mi NNW 9.2 mph 18.4 mph N/A   Mostly Cloudy
2:52 PM 82.9 °F 84.0 °F 63.0 °F 51% 30.08 in 10.0 mi North 6.9 mph - N/A   Scattered Clouds
3:52 PM 84.0 °F 84.0 °F 60.1 °F 44% 30.08 in 10.0 mi NNW 10.4 mph - N/A   Clear
4:52 PM 82.0 °F 82.0 °F 57.9 °F 44% 30.09 in 10.0 mi NNW 13.8 mph - N/A   Clear
5:52 PM 78.1 °F - 55.0 °F 45% 30.11 in 10.0 mi North 10.4 mph - N/A   Scattered Clouds
6:52 PM 71.1 °F - 55.0 °F 57% 30.14 in 10.0 mi NNW 10.4 mph 20.7 mph N/A   Clear
7:52 PM 68.0 °F - 55.0 °F 63% 30.16 in 10.0 mi North 9.2 mph 21.9 mph N/A   Clear
8:52 PM 66.0 °F - 53.1 °F 63% 30.18 in 10.0 mi North 8.1 mph - N/A   Clear
9:52 PM 62.1 °F - 53.1 °F 72% 30.19 in 10.0 mi NNW 6.9 mph - N/A   Clear
10:52 PM 62.1 °F - 52.0 °F 70% 30.22 in 10.0 mi North 10.4 mph 23.0 mph N/A   Clear
11:52 PM 59.0 °F - 51.1 °F 75% 30.24 in 10.0 mi North 10.4 mph - N/A   Clear